Location: Lake Sonoma
(38.7200°N, 123.0564°W)
Time: 19:54:08
(UTC-07:00)

Daily predictions for brighter satellites

Satellite Brightness Start Highest point End
(mag) Time Altitude Azimuth Time Altitude Azimuth Time Altitude Azimuth
Tsikada Rocket 4.0 20:47:10 10° S 20:53:24 82° E 20:59:35 10° N
COSMOS 2455 2.9 20:49:27 10° SSW 20:55:20 61° ESE 21:01:16 10° NE
Helios 1A 3.9 20:53:24 10° SE 20:57:08 32° ENE 21:00:54 10° N
ATLAS 5 CENTAUR R/B 3.7 20:53:15 10° NNW 20:58:11 26° NE 21:03:28 10° E
Meteor 2-10 Rocket 4.1 20:53:05 10° NNW 20:58:54 73° W 21:04:38 10° S
Cosmos 2150 Rocket 4.4 20:55:37 10° SSW 21:00:59 73° WNW 21:06:18 10° NNE
Aureole 3 4.2 20:59:57 10° SE 21:02:07 18° E 21:04:15 10° NE
Cosmos 2034 Rocket 4.4 20:56:22 10° NNW 21:02:31 68° W 21:08:36 10° S
Cosmos 1933 Rocket 4.2 20:59:56 10° SSW 21:04:12 61° W 21:08:32 10° N
Cosmos 1933 4.1 21:00:44 10° NNW 21:04:41 56° W 21:08:36 10° S
ISS -3.0 21:01:51 10° WSW 21:05:02 55° NW 21:08:15 10° NE
Cosmos 1939 Rocket 3.2 21:01:12 10° SSE 21:05:14 53° ENE 21:09:16 10° N
Cosmos 1408 4.1 21:03:26 10° SE 21:06:09 19° E 21:08:53 10° NE
ERS-1 Rocket 4.2 21:04:03 10° ESE 21:08:10 26° ENE 21:12:19 10° NNE
Cosmos 1634 Rocket 4.3 21:03:29 10° N 21:09:39 53° E 21:15:47 10° SSE
Cosmos 1862 Rocket 4.1 21:05:14 10° NNW 21:09:41 62° W 21:14:05 10° S
Tiangong 2 1.4 21:07:45 10° WNW 21:10:56 58° SSW 21:13:47 12° SE
CZ-4B DEB 3.6 21:13:37 12° SE 21:15:54 29° ENE 21:18:29 10° N
Spot 2 Rocket 4.2 21:11:33 10° S 21:16:33 56° W 21:21:35 10° NNW
Resurs 01 Rocket 2.9 21:14:25 10° S 21:18:35 40° W 21:22:47 10° NNW
Cosmos 1825 3.0 21:20:30 10° SSE 21:23:49 30° E 21:27:10 10° NNE
Shenzhou-11 Module 3.2 21:23:15 10° W 21:26:03 32° SSW 21:28:05 15° SSE
Okean 1-7 3.3 21:25:11 10° N 21:29:29 50° E 21:33:11 13° SSE
USA 215 4.1 21:25:33 10° E 21:31:34 40° NNE 21:37:36 10° NW
Cosmos 1782 3.2 21:28:56 10° N 21:32:45 43° E 21:35:30 17° SE
Meteor 2-3 Rocket 4.3 21:29:39 10° SSW 21:35:17 62° W 21:40:55 10° N
SPOT 5 4.1 21:36:07 16° ESE 21:39:26 30° ENE 21:44:01 10° N
Cosmos 2279 Rocket 4.2 21:35:59 10° N 21:42:08 56° E 21:47:10 15° SSE
Envisat 4.0 21:38:51 10° S 21:43:41 44° W 21:48:33 10° NNW
Cosmos 372 Rocket 3.9 21:39:01 10° S 21:44:04 63° ESE 21:49:08 10° NNE
MetOp-A 4.4 21:42:39 18° SE 21:46:31 52° ENE 21:51:42 10° N
Cosmos 1703 Rocket 3.9 21:42:40 10° NNW 21:47:03 65° W 21:51:21 10° S
Cosmos 468 4.5 21:43:09 10° NNW 21:48:26 83° ENE 21:52:22 18° SSE
deb Kosmos-1763 4.4 21:47:13 10° N 21:50:55 52° ENE 21:52:38 28° SE
CENTAUR R/B 2.5 21:45:53 10° SSW 21:51:49 87° WNW 21:58:37 10° NNE
Cosmos 1862 3.8 21:50:16 24° SE 21:52:06 39° E 21:55:48 10° NNE
Helios 1B rocket 3.2 21:51:54 10° N 21:55:56 53° WNW 21:59:54 10° SSW
Cosmos 1733 Rocket 3.7 21:54:41 26° SE 21:56:13 34° E 22:00:08 10° NNE
Cosmos 1943 Rocket 2.1 21:50:53 10° SSW 21:56:29 89° ESE 22:02:05 10° NNE
Cosmos 1269 Rocket 4.1 21:53:43 10° NNW 21:58:59 66° ENE 22:02:02 25° SE
Cosmos 1340 2.8 21:56:03 10° N 21:59:48 57° E 22:01:16 33° SE
Cosmos 1125 Rocket 3.7 21:54:40 10° SSW 21:59:54 76° WNW 22:05:09 10° NNE
Cosmos 2084 4.1 21:57:20 10° NW 22:01:01 43° WSW 22:03:15 21° S
DNEPR-1 R/B 4.2 21:57:01 10° SW 22:02:19 66° WNW 22:06:51 10° NNE
SAR-Lupe-4 3.9 22:00:55 21° S 22:03:10 62° WSW 22:06:44 10° NNW
Lacrosse 4 Rocket 1.8 22:01:01 10° NNW 22:05:27 56° ENE 22:07:15 32° ESE
NOAA 11 4.3 22:07:58 19° S 22:11:59 78° WSW 22:17:31 10° NNW
ATLAS CENTAUR R/B 3.4 22:15:11 14° ENE 22:15:11 14° ENE 22:15:52 10° ENE
YAOGAN 6 4.4 22:09:35 10° SSW 22:12:50 29° W 22:16:05 10° NW
Cosmos 1606 3.4 22:14:43 10° NNW 22:18:24 50° W 22:20:24 24° SSW
SL-08 RB Rocket 3.8 22:17:13 36° SE 22:19:03 66° ENE 22:23:40 10° N
Cosmos 2369 Rocket 4.0 22:17:44 10° WSW 22:22:45 32° WNW 22:27:50 10° N
Cosmos 158 Rocket 4.3 22:22:43 10° NNW 22:27:30 57° WSW 22:29:52 28° S
GPS 2-04 Rocket1 3.5 22:24:44 10° W 22:27:39 32° SSW 22:27:39 32° SSW
Cosmos 1867 4.2 22:25:32 10° NNW 22:30:44 43° NE 22:32:34 32° E
Lacrosse 5 rocket 4.2 22:29:21 10° WNW 22:31:45 17° NNW 22:34:11 10° N
Cosmos 1833 4.2 22:27:32 10° NNW 22:33:21 85° WSW 22:35:41 38° SSE
H-2A R/B 2.1 22:32:21 39° SSE 22:34:24 75° ENE 22:39:43 10° N
Cosmos 1674 Rocket 3.5 22:30:37 10° N 22:34:53 60° E 22:35:25 55° ESE
Cosmos 1378 Rocket 4.5 22:31:02 10° NNE 22:35:03 32° ENE 22:35:07 32° E
Milstar 3 3.6 22:26:23 10° WSW 22:36:43 41° S 22:39:07 33° SE
Landsat 7 4.0 22:39:41 48° ESE 22:40:32 55° ENE 22:45:11 10° N
ISS -0.5 22:40:29 10° NW 22:42:05 13° NNW 22:43:42 10° NNE
Cosmos 2344 3.8 22:34:52 10° SW 22:42:30 76° NW 22:50:58 10° NNE
Cosmos 2297 Rocket 4.4 22:40:16 10° NNE 22:42:49 13° NE 22:45:04 11° ENE
ATLAS 5 CENTAUR R/B 2.6 22:37:16 10° NW 22:43:19 65° WSW 22:45:58 36° S
ERS-1 Rocket 4.3 22:43:38 18° SSW 22:46:47 34° W 22:51:21 10° NNW
H-2A R/B 3.4 22:47:58 25° ENE 22:47:58 25° ENE 22:51:01 10° NNE
OAO 3 Copernicus 4.3 22:42:51 10° WSW 22:47:47 57° S 22:47:56 57° S
Okean 3 3.8 22:44:51 10° N 22:48:42 50° ENE 22:48:42 50° ENE
IGS 5A 4.1 22:49:29 41° ENE 22:49:29 41° ENE 22:53:12 10° N
Cosmos 1656 Rocket 3.8 22:48:00 13° SSW 22:52:48 71° WNW 22:58:19 10° NNE
ARGOS 3.9 22:51:55 28° SSW 22:54:25 47° W 22:59:36 10° NNW
Terra 2.0 22:55:21 54° E 22:55:41 55° ENE 23:00:21 10° N
Meteor 1-27 Rocket 4.5 22:54:11 10° NNW 22:59:38 47° W 23:02:16 28° SSW
Cosmos 1437 4.1 22:59:48 10° N 23:01:53 37° NNW 23:01:53 37° NNW
Nadezhda 4 Rocket 4.4 22:59:16 21° SSW 23:03:28 58° W 23:09:33 10° N
Cosmos 1092 Rocket 3.9 23:01:10 38° SSW 23:03:43 83° W 23:09:52 10° N
Cosmos 1908 Rocket 3.5 23:09:52 80° W 23:09:54 80° W 23:14:23 10° N
Cosmos 1627 Rocket 4.4 23:11:45 56° SSE 23:13:09 77° E 23:19:30 10° N
USA 215 3.3 23:12:40 49° S 23:14:20 64° SW 23:20:51 10° NW
Meteor 1-20 Rocket 4.3 23:15:32 57° E 23:15:40 58° E 23:21:14 10° NNE
SPOT 5 4.4 23:15:21 25° SW 23:17:20 33° W 23:22:07 10° NNW
Cosmos 1553 Rocket 4.4 23:14:28 10° N 23:20:31 45° ENE 23:21:03 44° E
Okean 2 Rocket 4.1 23:23:28 37° NE 23:23:28 37° NE 23:26:27 10° NNE
Meteor 1-25 Rocket 4.1 23:23:38 72° SE 23:24:05 77° E 23:29:56 10° NNE
Cosmos 2251 Rocket 3.6 23:23:15 10° NNW 23:28:27 65° WSW 23:28:39 65° WSW
CZ-2C R/B 4.4 23:25:03 10° NE 23:27:13 19° ENE 23:27:13 19° ENE
H-2A ROCKET BODY 4.4 23:24:37 10° SW 23:57:12 - SE 23:25:26 14° SW
Cosmos 1812 3.9 23:28:14 10° N 23:30:51 41° NNW 23:30:51 41° NNW
Cosmos 2227 Rocket 3.0 23:28:02 10° N 23:33:16 37° ENE 23:33:36 37° ENE
Spot 4 4.1 23:35:23 62° NNE 23:35:23 62° NNE 23:39:39 10° N
deb Chang Zheng 4 4.2 23:31:04 10° NNE 23:34:25 51° NNE 23:34:25 51° NNE
Cosmos 1782 Rocket 4.1 23:38:12 55° NNW 23:38:12 55° NNW 23:41:49 10° N
CZ-4 R/B 4.1 23:35:01 10° NNE 23:38:51 61° NNE 23:38:51 61° NNE
Cosmos 2219 3.3 23:35:08 10° NNW 23:40:50 66° WSW 23:41:02 65° WSW
Lacrosse 4 Rocket 4.0 23:41:35 10° WNW 23:43:36 13° WSW 23:43:36 13° WSW
ATLAS CENTAUR R/B 3.1 23:51:21 28° WNW 23:51:33 28° NW 23:54:56 10° N
GEOS 3 Rocket 3.8 23:52:33 64° W 23:52:33 64° W 23:57:14 10° NW
